TimeEDT,TemperatureF,Dew PointF,Humidity,Sea Level PressureIn,VisibilityMPH,Wind Direction,Wind SpeedMPH,Gust SpeedMPH,PrecipitationIn,Events,Conditions,WindDirDegrees,DateUTC
12:01 AM,41.0,37.4,87,30.16,10.0,Calm,Calm,-,N/A,,Clear,0,2013-10-28 04:01:00
12:21 AM,41.0,37.4,87,30.16,10.0,Calm,Calm,-,N/A,,Clear,0,2013-10-28 04:21:00
12:41 AM,39.2,37.4,93,30.16,10.0,Calm,Calm,-,N/A,,Clear,0,2013-10-28 04:41:00
1:01 AM,39.2,37.4,93,30.16,7.0,Calm,Calm,-,N/A,,Clear,0,2013-10-28 05:01:00
1:21 AM,37.4,35.6,93,30.17,10.0,Calm,Calm,-,N/A,,Clear,0,2013-10-28 05:21:00
1:41 AM,39.2,35.6,87,30.17,10.0,Calm,Calm,-,N/A,,Clear,0,2013-10-28 05:41:00
2:01 AM,39.2,37.4,93,30.17,7.0,Calm,Calm,-,N/A,,Clear,0,2013-10-28 06:01:00
2:21 AM,39.2,37.4,93,30.16,7.0,Calm,Calm,-,N/A,,Clear,0,2013-10-28 06:21:00
2:42 AM,39.2,37.4,93,30.16,7.0,Calm,Calm,-,N/A,,Clear,0,2013-10-28 06:42:00
3:02 AM,39.2,37.4,93,30.16,7.0,Calm,Calm,-,N/A,,Scattered Clouds,0,2013-10-28 07:02:00
3:22 AM,39.2,37.4,93,30.16,10.0,Calm,Calm,-,N/A,,Mostly Cloudy,0,2013-10-28 07:22:00
3:42 AM,39.2,37.4,93,30.16,10.0,Calm,Calm,-,N/A,,Overcast,0,2013-10-28 07:42:00
4:02 AM,37.4,35.6,93,30.16,10.0,Calm,Calm,-,N/A,,Scattered Clouds,0,2013-10-28 08:02:00
4:22 AM,39.2,37.4,93,30.16,2.0,Calm,Calm,-,N/A,,Clear,0,2013-10-28 08:22:00
4:42 AM,37.4,35.6,93,30.17,3.0,Calm,Calm,-,N/A,,Clear,0,2013-10-28 08:42:00
5:02 AM,37.4,35.6,93,30.18,3.0,Calm,Calm,-,N/A,,Clear,0,2013-10-28 09:02:00
5:22 AM,37.4,35.6,93,30.18,5.0,Calm,Calm,-,N/A,,Clear,0,2013-10-28 09:22:00
5:42 AM,37.4,35.6,93,30.19,7.0,Calm,Calm,-,N/A,,Clear,0,2013-10-28 09:42:00
6:02 AM,37.4,35.6,93,30.19,4.0,Calm,Calm,-,N/A,,Clear,0,2013-10-28 10:02:00
6:22 AM,37.4,35.6,93,30.20,7.0,Calm,Calm,-,N/A,,Clear,0,2013-10-28 10:22:00
6:42 AM,37.4,35.6,93,30.20,7.0,Calm,Calm,-,N/A,,Scattered Clouds,0,2013-10-28 10:42:00
7:02 AM,37.4,35.6,93,30.20,5.0,Calm,Calm,-,N/A,,Scattered Clouds,0,2013-10-28 11:02:00
7:22 AM,37.4,37.4,100,30.21,7.0,Calm,Calm,-,N/A,,Scattered Clouds,0,2013-10-28 11:22:00
7:42 AM,39.2,37.4,93,30.22,2.5,Calm,Calm,-,N/A,,Scattered Clouds,0,2013-10-28 11:42:00
8:02 AM,41.0,37.4,87,30.23,5.0,Calm,Calm,-,N/A,,Mostly Cloudy,0,2013-10-28 12:02:00
8:22 AM,42.8,41.0,93,30.23,5.0,Calm,Calm,-,N/A,,Overcast,0,2013-10-28 12:22:00
8:42 AM,44.6,42.8,93,30.24,7.0,Calm,Calm,-,N/A,,Overcast,0,2013-10-28 12:42:00
9:02 AM,46.4,44.6,93,30.25,7.0,Calm,Calm,-,N/A,,Unknown,0,2013-10-28 13:02:00
9:22 AM,48.2,44.6,87,30.25,10.0,Calm,Calm,-,N/A,,Unknown,0,2013-10-28 13:22:00
9:42 AM,51.8,46.4,82,30.25,10.0,East,3.5,-,N/A,,Overcast,100,2013-10-28 13:42:00
10:02 AM,53.6,46.4,77,30.25,10.0,Calm,Calm,-,N/A,,Scattered Clouds,0,2013-10-28 14:02:00
10:22 AM,55.4,48.2,77,30.25,10.0,Calm,Calm,-,N/A,,Clear,0,2013-10-28 14:22:00
10:42 AM,55.4,46.4,72,30.25,10.0,Calm,Calm,-,N/A,,Clear,0,2013-10-28 14:42:00
11:03 AM,59.0,46.4,63,30.25,10.0,Calm,Calm,-,N/A,,Clear,0,2013-10-28 15:03:00
11:23 AM,60.8,44.6,55,30.25,10.0,Calm,Calm,-,N/A,,Clear,0,2013-10-28 15:23:00
11:43 AM,60.8,42.8,52,30.25,10.0,SW,3.5,-,N/A,,Clear,230,2013-10-28 15:43:00
12:03 PM,62.6,41.0,45,30.25,10.0,Calm,Calm,-,N/A,,Clear,0,2013-10-28 16:03:00
12:23 PM,62.6,41.0,45,30.25,10.0,WSW,3.5,-,N/A,,Clear,250,2013-10-28 16:23:00
12:43 PM,62.6,41.0,45,30.24,10.0,WSW,5.8,-,N/A,,Clear,250,2013-10-28 16:43:00
1:03 PM,62.6,46.4,55,30.23,10.0,NE,4.6,-,N/A,,Clear,50,2013-10-28 17:03:00
1:23 PM,62.6,48.2,59,30.22,10.0,NE,4.6,-,N/A,,Scattered Clouds,40,2013-10-28 17:23:00
1:43 PM,62.6,46.4,55,30.22,10.0,NE,3.5,-,N/A,,Scattered Clouds,40,2013-10-28 17:43:00
2:03 PM,62.6,44.6,52,30.21,10.0,Calm,Calm,-,N/A,,Clear,0,2013-10-28 18:03:00
2:23 PM,62.6,44.6,52,30.21,10.0,NE,3.5,-,N/A,,Clear,50,2013-10-28 18:23:00
2:43 PM,62.6,46.4,55,30.21,10.0,East,3.5,-,N/A,,Clear,100,2013-10-28 18:43:00
3:03 PM,62.6,44.6,52,30.21,10.0,East,3.5,-,N/A,,Clear,100,2013-10-28 19:03:00
3:23 PM,62.6,46.4,55,30.21,10.0,East,5.8,-,N/A,,Clear,80,2013-10-28 19:23:00
3:43 PM,62.6,48.2,59,30.21,10.0,ESE,4.6,-,N/A,,Clear,110,2013-10-28 19:43:00
4:03 PM,60.8,48.2,63,30.21,10.0,ENE,3.5,-,N/A,,Clear,70,2013-10-28 20:03:00
4:23 PM,60.8,46.4,59,30.21,10.0,East,3.5,-,N/A,,Clear,90,2013-10-28 20:23:00
4:43 PM,60.8,44.6,55,30.22,10.0,ENE,3.5,-,N/A,,Clear,70,2013-10-28 20:43:00
5:03 PM,60.8,44.6,55,30.22,10.0,East,3.5,-,N/A,,Clear,80,2013-10-28 21:03:00
5:23 PM,60.8,44.6,55,30.23,10.0,Calm,Calm,-,N/A,,Clear,0,2013-10-28 21:23:00
5:43 PM,59.0,42.8,55,30.23,10.0,Calm,Calm,-,N/A,,Clear,0,2013-10-28 21:43:00
6:03 PM,55.4,44.6,67,30.24,10.0,Calm,Calm,-,N/A,,Clear,0,2013-10-28 22:03:00
6:23 PM,51.8,44.6,76,30.25,10.0,Calm,Calm,-,N/A,,Clear,0,2013-10-28 22:23:00
6:43 PM,51.8,44.6,76,30.25,10.0,Calm,Calm,-,N/A,,Clear,0,2013-10-28 22:43:00
7:03 PM,50.0,44.6,82,30.26,10.0,Calm,Calm,-,N/A,,Clear,0,2013-10-28 23:03:00
7:23 PM,48.2,44.6,87,30.26,10.0,Calm,Calm,-,N/A,,Clear,0,2013-10-28 23:23:00
7:44 PM,48.2,44.6,87,30.27,10.0,Calm,Calm,-,N/A,,Clear,0,2013-10-28 23:44:00
8:04 PM,46.4,44.6,93,30.27,10.0,Calm,Calm,-,N/A,,Clear,0,2013-10-29 00:04:00
8:24 PM,46.4,44.6,93,30.27,10.0,Calm,Calm,-,N/A,,Clear,0,2013-10-29 00:24:00
8:44 PM,46.4,44.6,93,30.26,10.0,Calm,Calm,-,N/A,,Clear,0,2013-10-29 00:44:00
9:04 PM,46.4,42.8,87,30.27,10.0,Calm,Calm,-,N/A,,Clear,0,2013-10-29 01:04:00
9:24 PM,46.4,42.8,87,30.27,10.0,Calm,Calm,-,N/A,,Clear,0,2013-10-29 01:24:00
9:44 PM,46.4,42.8,87,30.27,10.0,Calm,Calm,-,N/A,,Clear,0,2013-10-29 01:44:00
10:04 PM,44.6,42.8,93,30.28,7.0,Calm,Calm,-,N/A,,Clear,0,2013-10-29 02:04:00
10:24 PM,44.6,42.8,93,30.28,7.0,Calm,Calm,-,N/A,,Clear,0,2013-10-29 02:24:00
10:44 PM,44.6,42.8,93,30.29,4.0,Calm,Calm,-,N/A,,Clear,0,2013-10-29 02:44:00
11:04 PM,44.6,41.0,87,30.29,5.0,Calm,Calm,-,N/A,,Clear,0,2013-10-29 03:04:00
11:24 PM,44.6,42.8,93,30.29,3.0,Calm,Calm,-,N/A,,Clear,0,2013-10-29 03:24:00
11:44 PM,42.8,41.0,93,30.28,5.0,NNE,3.5,-,N/A,,Clear,20,2013-10-29 03:44:00